[sarex] 2 Line ISS Keps 10-1

Dave Larsen PhD doc at volcano.net
Sat Sep 30 20:37:38 PDT 2006


ISS
1 25544U 98067A   06273.82407407  .00028301  00000-0  17770-3 0  7740
2 25544 051.6375 003.2827 0013472 040.8905 095.3806 15.76398831449823


More information about the SAREX mailing list